Torna al catalogo

NOAA 16 DEB

AttivoSSO
NORAD 41059·DEBRIS·🇺🇸 United States

Lanciato Sep 21, 2000 da Vandenberg Space Force Base

Loading…

Prossimi Passaggi (prossime 24 ore)

TLE

AggiornatoSource: Space-Track

Epoca: Sep 14, 2026, 10:13 UTC

1 41059U 00055S   26257.42588823  .00000455  00000-0  23312-3 0  9999
2 41059  98.6155 325.8811 0021184  28.6467 331.5869 14.20071100558652

Traccia NOAA 16 DEB in tempo reale con AllMySat

Download on the App Store